Weather History for FBMN - January, 2014

Change the Weather History Date:

Wednesday, January 8, 2014

  Actual Average Record
Temperature  
Mean Temperature 80 °F -  
Max Temperature 93 °F 88 °F 100 °F (2005)
Min Temperature 66 °F 69 °F 66 °F (2011)
Cooling Degree Days 14    
Growing Degree Days 30 (Base 50)    
Moisture  
Dew Point 61 °F    
Average Humidity 61    
Maximum Humidity 94    
Minimum Humidity 26    
Precipitation  
Precipitation 0.00 in - - ()
Sea Level Pressure  
Sea Level Pressure 29.88 in    
Wind  
Wind Speed 2 mph ()    
Max Wind Speed 8 mph    
Max Gust Speed -    
Visibility 6.1 miles    
Events      
Averages and records for this station are not official NWS values.
T = Trace of Precipitation, MM = Missing Value Source: Averaged Metar Reports

Daily Weather History Graph

Daily Weather History Graph

Search for Another Location

Airport or City:

Trip Planner

Search our weather history database for the weather conditions in past years. The results will help you decide how hot, cold, wet, or windy it might be!

Date:

Astronomy

Jan. 08, 2014 Rise Set
Actual Time 5:54 AM CAT 7:11 PM CAT
Civil Twilight 5:30 AM CAT 7:35 PM CAT
Nautical Twilight 5:01 AM CAT 8:04 PM CAT
Astronomical Twilight 4:31 AM CAT 8:33 PM CAT
Moon 12:47 PM CAT (1/8) No Moon Set
Length of Visible Light 14h 04m
Length of Day
13h 16m
First Quarter, 53% of the Moon is Illuminated
Jan 8
First Quarter
Jan 16
Full
Jan 24
Last Quarter
Jan 30
New
Feb 6
First Quarter

Hourly Weather History & Observations

Time (CAT) Temp. Heat Index Dew Point Humidity Pressure Visibility Wind Dir Wind Speed Gust Speed Precip Events Conditions
12:00 AM 71.6 °F - 66.2 °F 83% 29.86 in - ENE 4.6 mph - N/A   Clear
1:00 AM 71.6 °F - 66.2 °F 83% 29.86 in - Variable 1.2 mph - N/A   Clear
2:00 AM 69 °F - 66 °F 87%  in 6 mi WNW 1.2 mph - -   Partly Cloudy
2:00 AM 69.8 °F - 66.2 °F 88% 29.86 in - Variable 1.2 mph - N/A   Clear
3:00 AM 68.0 °F - 66.2 °F 94% 29.86 in - Variable 2.3 mph - N/A   Clear
5:00 AM 68 °F - 65 °F 87%  in 6 mi North 1.2 mph - -   Partly Cloudy
5:00 AM 68.0 °F - 64.4 °F 88% 29.86 in - Variable 1.2 mph - N/A   Clear
6:00 AM 66.2 °F - 64.4 °F 94% 29.89 in - Variable 1.2 mph - N/A   Clear
7:00 AM 71.6 °F - 66.2 °F 83% 29.89 in - Calm Calm - N/A   Clear
8:00 AM 75.2 °F - 68.0 °F 78% 29.89 in - Variable 2.3 mph - N/A   Clear
9:00 AM 80.6 °F 82.7 °F 66.2 °F 61% 29.92 in - NNE 3.5 mph - N/A   Clear
10:00 AM 86.0 °F 85.4 °F 59.0 °F 40% 29.92 in - NNE 4.6 mph - N/A   Clear
11:00 AM 87.8 °F 85.7 °F 53.6 °F 31% 29.92 in - NNE 5.8 mph - N/A   Clear
12:00 PM 89.6 °F 87.7 °F 55.4 °F 31% 29.89 in 6.2 mi South 3.5 mph - N/A   Partly Cloudy
2:00 PM 91.4 °F - 51.8 °F 26% 29.86 in 6.2 mi NNE 5.8 mph - N/A   Unknown
3:00 PM 91.4 °F 89.4 °F 55.4 °F 29% 29.86 in 6.2 mi NW 8.1 mph - N/A   Scattered Clouds
4:00 PM 93.2 °F 91.3 °F 55.4 °F 28% 29.83 in 6.2 mi North 5.8 mph - N/A   Scattered Clouds
6:00 PM 91.4 °F 89.1 °F 53.6 °F 28% 29.83 in 6.2 mi NW 5.8 mph - N/A   Scattered Clouds
7:00 PM 87.8 °F 86.1 °F 55.4 °F 33% 29.86 in 6.2 mi WNW 3.5 mph - N/A   Partly Cloudy
8:00 PM 82.4 °F 82.0 °F 57.2 °F 42% 29.86 in - Calm Calm - N/A   Clear
10:00 PM 75.2 °F - 59.0 °F 57% 29.92 in - Calm Calm - N/A   Clear
11:00 PM 75.2 °F - 62.6 °F 65% 29.92 in - Variable 1.2 mph - N/A   Clear